{"data":{"norad_id":67431,"epoch":"2026-05-25T02:09:10.810080Z","epoch_age_seconds":67252,"freshness":"FRESH","line1":"1 67431U 26005AD  26145.08970845  .00009214  00000+0  34382-3 0  9991","line2":"2 67431  42.9985 166.2709 0000914 271.7587  88.3160 15.27589992 20388","mean_motion":15.27589992,"eccentricity":9.14e-5,"inclination_deg":42.9985,"raan_deg":166.2709,"arg_perigee_deg":271.7587,"mean_anomaly_deg":88.316,"bstar":0.00034382,"rev_number":2038,"period_min":94.266132112759,"perigee_km":482.3920668856,"apogee_km":483.64628623468,"semimajor_km":6861.1561765601,"source":"CELESTRAK","updated_at":"2026-05-25T13:38:21.558584Z"}}